Weather History for Pian Rosa, Italy

Change the Weather History Date:

Wednesday, February 5, 2014

  Actual Average Record
Temperature  
Mean Temperature 6 °F -  
Max Temperature 12 °F 17 °F 50 °F (2013)
Min Temperature 1 °F 6 °F -5 °F (2012)
Degree Days  
Heating Degree Days 58    
Moisture  
Dew Point 5 °F    
Average Humidity 78    
Maximum Humidity 92    
Minimum Humidity 55    
Precipitation  
Precipitation 0.04 in - - ()
Sea Level Pressure  
Sea Level Pressure 29.55 in    
Wind  
Wind Speed 21 mph ()    
Max Wind Speed 39 mph    
Max Gust Speed 54 mph    
Visibility 0.8 miles    
Events Fog , Snow    
Averages and records for this station are not official NWS values.
T = Trace of Precipitation, MM = Missing Value Source: Averaged Metar Reports

Daily Weather History Graph

Daily Weather History Graph

Search for Another Location

Airport:

Trip Planner

Search our weather history database for the weather conditions in past years. The results will help you decide how hot, cold, wet, or windy it might be!

Date:

Astronomy

Feb. 05, 2014 Rise Set
Actual Time 7:46 AM CET 5:40 PM CET
Civil Twilight 7:15 AM CET 6:11 PM CET
Nautical Twilight 6:39 AM CET 6:47 PM CET
Astronomical Twilight 6:04 AM CET 7:22 PM CET
Moon 10:29 AM CET (2/5) No Moon Set
Length of Visible Light 10h 56m
Length of Day
9h 53m
Waxing Crescent, 36% of the Moon is Illuminated
Feb 5
Waxing Crescent
Feb 6
First Quarter
Feb 15
Full
Feb 22
Last Quarter
Mar 1
New

Hourly Weather History & Observations

Time (CET) Temp. Windchill Dew Point Humidity Pressure Visibility Wind Dir Wind Speed Gust Speed Precip Events Conditions
12:00 AM 14 °F - 9 °F 73%  in 0 mi SSW 17.3 mph - - Snow Light Snow
12:55 AM 14.0 °F -6.2 °F 10.4 °F 86% 29.65 in 0.1 mi SSW 27.6 mph 42.6 mph N/A Fog , Snow Light Snow
1:00 AM 13 °F - 10 °F 83%  in 0 mi SSW 27.6 mph - - Snow Light Snow
1:55 AM 14.0 °F -5.8 °F 10.4 °F 86% 29.65 in 0.1 mi SSW 26.5 mph 44.9 mph N/A Fog , Snow Light Snow
2:00 AM 14 °F - 10 °F 79%  in 0 mi SSW 26.5 mph - - Snow Light Snow
2:55 AM 12.2 °F -11.0 °F 8.6 °F 85% 29.62 in 3.1 mi South 36.8 mph 54.1 mph N/A   Scattered Clouds
3:00 AM 11 °F - 8 °F 81%  in 3 mi South 36.8 mph - - Fog Light Fog
3:55 AM 10.4 °F -9.1 °F 5.0 °F 79% 29.59 in 3.1 mi South 21.9 mph 36.8 mph N/A   Mostly Cloudy
4:00 AM 10 °F - 4 °F 68%  in 3 mi South 21.9 mph - -   Mist
4:55 AM 10.4 °F -11.7 °F 1.4 °F 67% 29.59 in 3.1 mi SSE 29.9 mph 44.9 mph N/A   Mostly Cloudy
5:00 AM 10 °F - 2 °F 56%  in 3 mi SSE 29.9 mph - -   Mist
5:55 AM 8.6 °F -13.8 °F 1.4 °F 73% 29.56 in 3.1 mi South 28.8 mph 50.6 mph N/A   Mostly Cloudy
6:00 AM 9 °F - 1 °F 58%  in 3 mi South 28.8 mph - -   Mist
6:55 AM 8.6 °F -16.0 °F 1.4 °F 73% 29.56 in 1.9 mi South 36.8 mph 51.8 mph N/A   Mostly Cloudy
7:00 AM 9 °F - 0 °F 55%  in 2 mi South 36.8 mph - -   Mist
7:55 AM 8.6 °F -12.7 °F 3.2 °F 79% 29.56 in 0.1 mi South 25.3 mph 42.6 mph N/A Fog Light Freezing Fog
8:00 AM 9 °F - 3 °F 65%  in 0 mi South 25.3 mph - - Fog Heavy Fog
8:55 AM 8.6 °F -9.5 °F 3.2 °F 79% 29.56 in 0.1 mi SSW 17.3 mph 32.2 mph N/A Fog Light Freezing Fog
9:00 AM 8 °F - 3 °F 73%  in 0 mi SSW 17.3 mph - - Fog Heavy Fog
9:55 AM 10.4 °F -8.6 °F 5.0 °F 79% 29.56 in 0.1 mi South 20.7 mph 32.2 mph N/A Fog Light Freezing Fog
10:00 AM 10 °F - 4 °F 69%  in 0 mi South 20.7 mph - - Fog Heavy Fog
10:55 AM 10.4 °F -14.1 °F 5.0 °F 79% 29.53 in 0.1 mi SSE 39.1 mph - N/A Fog Light Freezing Fog
11:00 AM 11 °F - 4 °F 64%  in 0 mi SSE 39.1 mph - - Fog Heavy Fog
11:55 AM 10.4 °F -7.7 °F 5.0 °F 79% 29.53 in 0.1 mi South 18.4 mph 33.4 mph N/A Fog Light Freezing Fog
12:00 PM 10 °F - 4 °F 69%  in 0 mi South 18.4 mph - - Fog Heavy Fog
12:55 PM 1.4 °F -19.9 °F -2.2 °F 85% 29.56 in 0.1 mi SSW 19.6 mph 33.4 mph N/A Fog Light Freezing Fog
1:00 PM 1 °F - -3 °F 77%  in 0 mi SSW 19.6 mph - - Fog Heavy Fog
1:55 PM 10.4 °F -2.4 °F 6.8 °F 85% 29.53 in 0.1 mi South 9.2 mph - N/A Fog , Snow Light Snow
2:00 PM 10 °F - 6 °F 77%  in 0 mi South 9.2 mph - - Snow Light Snow
2:55 PM 10.4 °F -10.7 °F 6.8 °F 85% 29.50 in 0.0 mi SSW 26.5 mph 46.0 mph N/A Fog , Snow Light Snow
3:00 PM 11 °F - 7 °F 77%  in 0 mi SSW 26.5 mph - - Snow Light Snow
3:55 PM 10.4 °F -4.8 °F 8.6 °F 92% 29.50 in 0.0 mi South 12.7 mph 28.8 mph N/A Fog , Snow Light Snow
4:00 PM 11 °F - 8 °F 81%  in 0 mi South 12.7 mph - - Snow Light Snow
4:55 PM 10.4 °F 0.8 °F 6.8 °F 85% 29.50 in 0.0 mi SW 5.8 mph - N/A Fog , Snow Light Snow
5:00 PM 11 °F - 7 °F 77%  in 0 mi SW 5.8 mph - - Snow Light Snow
5:55 PM 12.2 °F 0.7 °F 6.8 °F 79% 29.50 in 0.0 mi SSW 8.1 mph - N/A Fog , Snow Light Snow
6:00 PM 11 °F - 7 °F 76%  in 0 mi SSW 8.1 mph - - Snow Light Snow
6:55 PM 10.4 °F -7.7 °F 6.8 °F 85% 29.50 in 0.1 mi SW 18.4 mph - N/A Fog , Snow Light Snow
7:00 PM 10 °F - 6 °F 78%  in 0 mi SW 18.4 mph - - Snow Light Snow
7:55 PM 10.4 °F -2.4 °F 6.8 °F 85% 29.53 in 0.1 mi SSW 9.2 mph - N/A Fog , Snow Light Snow
8:00 PM 11 °F - 7 °F 75%  in 0 mi SSW 9.2 mph - - Snow Light Snow
8:55 PM 8.6 °F -4.7 °F 5.0 °F 85% 29.53 in 0.1 mi ENE 9.2 mph - N/A Fog Light Freezing Fog
9:00 PM 9 °F - 6 °F 79%  in 0 mi ENE 9.2 mph - - Snow Light Snow
9:55 PM 6.8 °F -12.4 °F 5.0 °F 92% 29.53 in 0.5 mi ENE 18.4 mph - N/A Fog Light Freezing Fog
10:00 PM 7 °F - 5 °F 85%  in 0 mi ENE 18.4 mph - - Fog Heavy Fog
10:55 PM 6.8 °F -11.8 °F 5.0 °F 92% 29.56 in 0.5 mi NE 17.3 mph - N/A Fog Light Freezing Fog
11:00 PM 6 °F - 4 °F 90%  in 0 mi NE 17.3 mph - - Fog Heavy Fog
11:55 PM 5.0 °F -17.1 °F 3.2 °F 92% 29.56 in 6.2 mi ENE 24.2 mph - N/A   Scattered Clouds